Simultaneous Nadir Overpasses (SNOs) Predictions

Prediction of SNOs between AQUA and METOP-C Satellite Orbit:

Table of predicted SNOs for the next 14.0 days since TLE Epoch: 1/3/2020
Index Date (AQUA) Time (AQUA) Lat,Lon (AQUA) SZA (AQUA ) Date (METOP-C) Time (METOP-C) Lat,Lon (METOP-C) SZA (METOP-C ) Distance(km) Time Diff (sec)
1 01/03/2020 22:49:26 -73.68, 12.12 83.51 01/03/2020 22:48:14 -73.71, 12.12 83.48 2.27 72
2 01/03/2020 23:38:55 73.78, 179.54 96.60 01/03/2020 23:38:51 73.77, 179.62 96.58 2.73 4
3 01/04/2020 00:28:21 -73.84, -12.93 83.36 01/04/2020 00:29:31 -73.84, -12.89 83.36 1.36 70
4 01/06/2020 19:13:09 73.73,-113.91 96.24 01/06/2020 19:12:40 73.75,-113.88 96.26 1.99 29
5 01/06/2020 20:02:36 -73.83, 53.52 83.66 01/06/2020 20:03:20 -73.83, 53.64 83.67 3.61 44
6 01/09/2020 14:47:24 73.74, -47.48 95.89 01/09/2020 14:46:29 73.73, -47.38 95.88 3.54 55
7 01/09/2020 15:36:50 -73.78, 120.07 84.08 01/09/2020 15:37:10 -73.77, 120.04 84.09 1.68 20
8 01/09/2020 16:26:30 74.41, -73.74 96.60 01/09/2020 16:27:36 74.40, -71.03 96.50 80.76 66
9 01/12/2020 10:21:34 73.49, 19.49 95.21 01/12/2020 10:20:23 73.45, 18.54 95.22 30.25 71
10 01/12/2020 11:11:04 -73.73,-173.39 84.54 01/12/2020 11:10:59 -73.76,-173.43 84.52 2.68 5
11 01/12/2020 12:00:33 73.80, -5.90 95.53 01/12/2020 12:01:37 73.79, -6.01 95.52 3.65 64
12 01/15/2020 06:45:18 -73.75,-106.97 85.00 01/15/2020 06:44:47 -73.74,-106.90 85.00 2.08 31
13 01/15/2020 07:34:47 73.82, 60.50 95.08 01/15/2020 07:35:24 73.82, 60.61 95.07 3.51 37




NCC Satellite Simultaneous Nadir Overpasses (SNOs) Prediction Service
